Location: Arrodets-la-Barthe
(43.0306°N, 0.2829°E)
Time: 19:02:45
(UTC+00:00)

Cosmos 2123 Rocket - Pass Details

Date: 24 October 2021
Orbit: 961 x 992 km, 82.9° (Epoch: 02 December)

Event Time Altitude Azimuth Distance (km) Brightness Sun altitude
Rises 17:53:54 0° 353° (N) 3,716 7.0 -10.1°
Reaches altitude 10° 17:56:27 10° 356° (N) 2,761 6.4 -10.6°
Maximum altitude 18:02:48 74° 81° (E) 1,028 4.0 -11.8°
Drops below altitude 10° 18:09:03 10° 166° (SSE) 2,726 6.3 -12.9°
Sets 18:11:33 0° 169° (SSE) 3,666 6.9 -13.3°
